GW2593 Weather Reports


time (UTC)temp
C
wind
direction
speed
KPH
gust
KPH
rain 1hr
cm
rain 24hr
cm
rain mn
cm
humidity
%
barometer
mb
20260906115758 23 8 4.8 4.8 0.00 0.00 0.00 92 1012.9
20260906112754 22 18 1.6 1.6 0.00 0.00 0.00 93 1012.8
20260906105751 23 348 3.2 3.2 0.00 0.00 0.00 93 1012.5
20260906102747 23 330 1.6 3.2 0.00 0.00 0.00 93 1012.0
20260906095744 23 3 1.6 1.6 0.00 0.00 0.00 93 1011.8
20260906092743 23 13 0.0 1.6 0.00 0.00 0.00 93 1011.7
20260906085742 23 15 1.6 1.6 0.00 0.00 0.00 92 1011.6
20260906082739 23 19 1.6 1.6 0.00 0.00 0.00 92 1011.8
20260906075735 24 349 1.6 1.6 0.00 0.00 0.00 92 1011.6
20260906072732 24 310 0.0 0.0 0.00 0.00 0.00 92 1011.7
20260906065732 24 357 3.2 3.2 0.00 0.00 0.00 91 1012.0
20260906062727 24 324 1.6 1.6 0.00 0.00 0.00 91 1012.0
20260906055725 25 326 4.8 3.2 0.00 0.00 0.00 89 1012.0
20260906052720 25 347 4.8 4.8 0.00 0.00 0.00 89 1012.2
20260906045719 25 316 4.8 4.8 0.00 0.00 0.00 88 1011.7
20260906042714 26 351 4.8 4.8 0.00 0.00 0.00 84 1012.4
20260906035714 26 215 4.8 4.8 0.00 0.23 0.23 83 1013.0
20260906032709 26 130 4.8 4.8 0.00 0.23 0.23 83 1012.9
20260906025705 25 110 1.6 3.2 0.00 0.23 0.23 82 1013.1
20260906022701 25 117 8.0 9.7 0.00 0.23 0.23 83 1013.1
20260906015659 25 50 6.4 9.7 0.00 0.23 0.23 84 1013.6
20260906012657 24 146 4.8 4.8 0.00 0.23 0.23 89 1013.5
20260906005656 25 64 1.6 1.6 0.00 0.23 0.23 87 1012.8
20260906002653 24 2 0.0 0.0 0.00 0.23 0.23 85 1012.5
20260905235651 24 240 1.6 1.6 0.00 0.23 0.23 84 1012.1
20260905232650 24 189 0.0 1.6 0.00 0.23 0.23 87 1013.5
20260905225647 28 2 19.3 24.1 0.00 0.00 0.00 73 1013.6
20260905222642 30 204 8.0 11.3 0.00 0.00 0.00 82 1011.2
20260905215637 30 217 9.7 11.3 0.00 0.00 0.00 81 1010.9
20260905212632 31 195 8.0 9.7 0.00 0.00 0.00 77 1011.1
20260905205630 31 198 6.4 8.0 0.00 0.00 0.00 78 1011.1
20260905202627 31 198 11.3 12.9 0.00 0.00 0.00 77 1010.8
20260905195624 32 160 6.4 11.3 0.00 0.00 0.00 76 1011.2
20260905192622 32 243 12.9 14.5 0.00 0.00 0.00 74 1011.5
20260905185619 32 146 8.0 11.3 0.00 0.00 0.00 75 1012.2
20260905182619 32 177 11.3 14.5 0.00 0.00 0.00 73 1012.7
20260905175614 32 213 3.2 4.8 0.00 0.00 0.00 72 1013.0
20260905172614 32 222 8.0 11.3 0.00 0.00 0.00 73 1013.2
20260905165611 32 196 8.0 12.9 0.00 0.00 0.00 72 1013.7
20260905162607 32 214 8.0 9.7 0.00 0.00 0.00 73 1014.1
20260905155603 31 278 6.4 9.7 0.00 0.00 0.00 75 1014.3
20260905152601 31 217 8.0 11.3 0.00 0.00 0.00 76 1014.7
20260905145556 31 248 4.8 8.0 0.00 0.00 0.00 76 1014.8
20260905142555 30 254 8.0 9.7 0.00 0.00 0.00 74 1014.8
20260905135553 30 209 4.8 4.8 0.00 0.00 0.00 75 1015.1
20260905132548 29 266 6.4 8.0 0.00 0.00 0.00 80 1015.1
20260905125545 28 277 6.4 9.7 0.00 0.00 0.00 85 1015.2
20260905122542 27 291 4.8 8.0 0.00 0.00 0.00 88 1015.1